This is the latest recevied weather packets stored in our database for station/object KD8ZLZ. If no packets are shown the sender has not sent any weather packets the latest 10 day(s).
| Time | Temp. | Humidity | Pressure | Rain* | Wind** | Luminosity | Snow |
|---|---|---|---|---|---|---|---|
| 1777400130 | 15.56° C | 68% | 1012.9 hPa | 0 mm | - | - | - |
| 1777398331 | 15.56° C | 68% | 1012.7 hPa | 0 mm | - | - | - |
| 1777398028 | 15.56° C | 69% | 1012.7 hPa | 0 mm | - | - | - |
| 1777397429 | 16.11° C | 70% | 1012.7 hPa | 0 mm | - | - | - |
| 1777395929 | 16.11° C | 69% | 1012.3 hPa | 0 mm | - | - | - |
| 1777394148 | 16.11° C | 67% | 1012 hPa | 0 mm | - | - | - |
| 1777393828 | 16.11° C | 67% | 1012.1 hPa | 0 mm | - | - | - |
| 1777391429 | 16.11° C | 69% | 1011 hPa | 0 mm | - | - | - |
| 1777388429 | 17.22° C | 72% | 1010.5 hPa | 0.25 mm | - | - | - |
| 1777387829 | 17.22° C | 74% | 1010.5 hPa | 0.25 mm | - | - | - |
| 1777386928 | 17.78° C | 69% | 1010.5 hPa | 0.25 mm | - | - | - |
| 1777386649 | 18.33° C | 68% | 1010.5 hPa | 0.25 mm | - | - | - |
| 1777383649 | 18.33° C | 81% | 1009.8 hPa | 0 mm | - | - | - |
| 1777380069 | 16.67° C | 91% | 1009.3 hPa | 0 mm | - | - | - |
| 1777379169 | 16.11° C | 91% | 1008.9 hPa | 0 mm | - | - | - |
| 1777377329 | 16.11° C | 92% | 1008.3 hPa | 0 mm | - | - | - |
| 1777375829 | 16.11° C | 91% | 1007.9 hPa | 0 mm | - | - | - |
| 1777369529 | 16.11° C | 89% | 1007.1 hPa | 0 mm | - | - | - |
| 1777369249 | 15.56° C | 90% | 1007.1 hPa | 0 mm | - | - | - |
| 1777366528 | 15.56° C | 91% | 1007.4 hPa | 0 mm | - | - | - |
| 1777365928 | 15.56° C | 91% | 1007.1 hPa | 0 mm | - | - | - |
| 1777361729 | 16.67° C | 89% | 1006.1 hPa | 0 mm | - | - | - |
| 1777359649 | 16.67° C | 90% | 1006.1 hPa | 0.51 mm | - | - | - |
| 1777358728 | 16.11° C | 91% | 1006.1 hPa | 1.02 mm | - | - | - |
| 1777357828 | 16.11° C | 92% | 1007.1 hPa | 1.52 mm | - | - | - |
* Rain latest hour (hover to see other rain measurements)
** Current wind speed in m/s (hover to see current wind gust speed)